Tracking 33068 objects as of 24-Jan-2026
HD Live streaming from Space Station
objects crossing your sky now

HULIANWANG DIGUI-30

Track HULIANWANG DIGUI-30 now!
10-day predictions


NORAD ID: 64283
Int'l Code: 2025-121A
Perigee: 1,173.5 km
Apogee: 1,176.5 km
Inclination: 86.5 °
Period: 108.7 minutes
Semi major axis: 7546 km
RCS: Unknown
Launch date: June 5, 2025
Source: People's Republic of China (PRC)
Launch site: Taiyaun Space Center, China (TSC)
Your satellite tracking list
Your tracking list is empty




NASA's NSSDC Master Catalog

Two Line Element Set (TLE):
1 64283U 25121A   26024.32466115  .00000021  00000-0  14927-4 0  9996
2 64283  86.4929  62.1207 0002003 102.0567 258.0792 13.24421109 31113
Source of the keplerian elements: AFSPC